Location: Gwatt
(46.7204°N, 7.6223°E)
Time: 15:11:16
(UTC+00:00)

deb Explorer IX - Pass Details

Date: 27 January 2021
Orbit: 537 x 1102 km, 38.8° (Epoch: 01 March)

Event Time Altitude Azimuth Distance (km) Brightness Sun altitude
Rises 15:09:04 0° 217° (SW) 3,875 ? 10.1°
Reaches altitude 10° 15:12:29 10° 204° (SSW) 2,875 ? 9.6°
Maximum altitude 15:17:44 23° 155° (SSE) 1,990 ? 8.9°
Drops below altitude 10° 15:22:36 10° 106° (ESE) 2,639 ? 8.3°
Sets 15:25:34 0° 92° (E) 3,485 ? 7.9°
